| time (UTC) | temp F | wind direction | speed MPH | gust MPH | rain 1hr in | rain 24hr in | rain mn in | humidity % | barometer mb |
| 20260504023058 | 64 | 339 | 0.0 | 0.0 | 0.00 | 0.00 | 0.00 | 25 | 994.5 |
| 20260504021556 | 66 | 339 | 0.0 | 0.0 | 0.00 | 0.00 | 0.00 | 23 | 994.2 |
| 20260504020056 | 67 | 339 | 0.0 | 3.0 | 0.00 | 0.00 | 0.00 | 22 | 994.3 |
| 20260504014553 | 68 | 338 | 1.0 | 5.0 | 0.00 | 0.00 | 0.00 | 21 | 994.7 |
| 20260504013104 | 69 | 13 | 1.0 | 4.0 | 0.00 | 0.00 | 0.00 | 19 | 995.0 |
| 20260504011551 | 70 | 211 | 1.0 | 6.0 | 0.00 | 0.00 | 0.00 | 18 | 995.1 |
| 20260504010049 | 71 | 279 | 2.0 | 6.0 | 0.00 | 0.00 | 0.00 | 18 | 995.3 |
| 20260504004600 | 71 | 194 | 2.0 | 7.0 | 0.00 | 0.00 | 0.00 | 17 | 995.7 |
| 20260504003046 | 72 | 178 | 1.0 | 10.0 | 0.00 | 0.00 | 0.00 | 17 | 996.0 |
| 20260504001547 | 73 | 244 | 2.0 | 12.0 | 0.00 | 0.00 | 0.00 | 15 | 996.2 |
| 20260504000044 | 73 | 251 | 2.0 | 13.0 | 0.00 | 0.00 | 0.00 | 16 | 996.5 |
| 20260503234541 | 73 | 276 | 3.0 | 23.0 | 0.00 | 0.00 | 0.00 | 16 | 996.9 |
| 20260503233040 | 73 | 213 | 3.0 | 17.0 | 0.00 | 0.00 | 0.00 | 15 | 997.1 |
| 20260503231540 | 73 | 267 | 4.0 | 12.0 | 0.00 | 0.00 | 0.00 | 15 | 997.4 |
| 20260503230037 | 73 | 251 | 4.0 | 13.0 | 0.00 | 0.00 | 0.00 | 14 | 997.8 |
| 20260503224535 | 73 | 226 | 2.0 | 11.0 | 0.00 | 0.00 | 0.00 | 14 | 998.0 |
| 20260503223033 | 74 | 286 | 5.0 | 14.0 | 0.00 | 0.00 | 0.00 | 13 | 998.1 |
| 20260503221536 | 75 | 196 | 5.0 | 21.0 | 0.00 | 0.00 | 0.00 | 14 | 998.3 |
| 20260503220034 | 73 | 253 | 5.0 | 16.0 | 0.00 | 0.00 | 0.00 | 14 | 999.0 |
| 20260503214527 | 74 | 253 | 6.0 | 23.0 | 0.00 | 0.00 | 0.00 | 14 | 999.4 |
| 20260503213029 | 74 | 184 | 3.0 | 15.0 | 0.00 | 0.00 | 0.00 | 16 | 999.7 |
| 20260503211535 | 73 | 249 | 5.0 | 14.0 | 0.00 | 0.00 | 0.00 | 17 | 1000.2 |
| 20260503210021 | 73 | 223 | 4.0 | 13.0 | 0.00 | 0.00 | 0.00 | 16 | 1000.8 |
| 20260503204519 | 72 | 222 | 3.0 | 10.0 | 0.00 | 0.00 | 0.00 | 18 | 1001.6 |
| 20260503203020 | 71 | 260 | 3.0 | 11.0 | 0.00 | 0.00 | 0.00 | 18 | 1002.4 |
| 20260503201516 | 72 | 252 | 6.0 | 12.0 | 0.00 | 0.00 | 0.00 | 17 | 1002.7 |
| 20260503200012 | 75 | 250 | 4.0 | 12.0 | 0.00 | 0.00 | 0.00 | 17 | 1003.1 |
| 20260503194508 | 72 | 336 | 3.0 | 16.0 | 0.00 | 0.00 | 0.00 | 19 | 1003.4 |
| 20260503193023 | 73 | 246 | 6.0 | 16.0 | 0.00 | 0.00 | 0.00 | 17 | 1003.9 |
| 20260503191504 | 72 | 319 | 4.0 | 12.0 | 0.00 | 0.00 | 0.00 | 19 | 1004.1 |
| 20260503190004 | 72 | 186 | 4.0 | 9.0 | 0.00 | 0.00 | 0.00 | 18 | 1004.2 |
| 20260503184609 | 71 | 204 | 5.0 | 13.0 | 0.00 | 0.00 | 0.00 | 19 | 1004.6 |
| 20260503183058 | 71 | 299 | 4.0 | 12.0 | 0.00 | 0.00 | 0.00 | 20 | 1005.2 |
| 20260503181556 | 70 | 214 | 7.0 | 19.0 | 0.00 | 0.00 | 0.00 | 20 | 1006.0 |
| 20260503180052 | 70 | 283 | 2.0 | 13.0 | 0.00 | 0.00 | 0.00 | 20 | 1006.4 |
| 20260503174603 | 68 | 182 | 2.0 | 9.0 | 0.00 | 0.00 | 0.00 | 21 | 1006.8 |
| 20260503173049 | 66 | 224 | 4.0 | 13.0 | 0.00 | 0.00 | 0.00 | 21 | 1007.2 |
| 20260503171543 | 66 | 244 | 3.0 | 11.0 | 0.00 | 0.00 | 0.00 | 22 | 1007.7 |
| 20260503081544 | 42 | 5 | 3.0 | 8.0 | 0.00 | 0.00 | 0.00 | 46 | 1010.8 |
| 20260503071538 | 42 | 344 | 5.0 | 10.0 | 0.00 | 0.00 | 0.00 | 44 | 1010.7 |
| 20260503054526 | 48 | 307 | 4.0 | 9.0 | 0.00 | 0.00 | 0.00 | 42 | 1010.4 |
| 20260503053012 | 49 | 355 | 4.0 | 11.0 | 0.00 | 0.00 | 0.00 | 42 | 1010.4 |
| 20260503051511 | 50 | 355 | 5.0 | 13.0 | 0.00 | 0.00 | 0.00 | 42 | 1010.3 |
| 20260503050011 | 50 | 325 | 4.0 | 11.0 | 0.00 | 0.00 | 0.00 | 43 | 1010.4 |
| 20260503044513 | 51 | 294 | 6.0 | 11.0 | 0.00 | 0.00 | 0.00 | 44 | 1010.4 |
| 20260503043010 | 52 | 326 | 4.0 | 15.0 | 0.00 | 0.00 | 0.00 | 43 | 1010.4 |
| 20260503041509 | 52 | 347 | 6.0 | 15.0 | 0.00 | 0.00 | 0.00 | 43 | 1010.3 |
| 20260503040009 | 53 | 344 | 7.0 | 14.0 | 0.00 | 0.00 | 0.00 | 43 | 1010.3 |
| 20260503034509 | 54 | 355 | 7.0 | 14.0 | 0.00 | 0.00 | 0.00 | 43 | 1010.2 |
| 20260503033016 | 54 | 360 | 7.0 | 14.0 | 0.00 | 0.00 | 0.00 | 42 | 1010.0 |
| 20260503031507 | 56 | 345 | 6.0 | 12.0 | 0.00 | 0.00 | 0.00 | 40 | 1010.1 |
| 20260503030010 | 57 | 296 | 7.0 | 14.0 | 0.00 | 0.00 | 0.00 | 38 | 1009.8 |
| 20260503024506 | 56 | 338 | 7.0 | 14.0 | 0.00 | 0.00 | 0.00 | 40 | 1009.6 |